Terug naar catalogus

CZ-6A DEB

ActiefPO
NORAD 61358·DEBRIS·🇨🇳 China

Gelanceerd Aug 6, 2024 vanaf Taiyuan Satellite Launch Center

Loading…

Volgende Passages (komende 24 uur)

TLE

VersSource: Space-Track

Epoch: Sep 13, 2026, 10:45 UTC

1 61358U 24140VX  26256.44800719  .00000681  00000-0  16635-3 0  9997
2 61358  88.9231 253.5234 0085154 333.3719  26.3125 14.49352970107115

Volg CZ-6A DEB in realtime met AllMySat

Download on the App Store